Powrót do katalogu

STARLINK-35624

AktywnyŁącznośćVLEO
NORAD 66166·PAYLOAD·🇺🇸 United States

Wystrzelony Oct 25, 2025 z Cape Canaveral Space Force Station

Loading…

Następne Przeloty (najbliższe 24 godziny)

TLE

ŚwieżeSource: CelesTrak SupGP

Epoka: Sep 14, 2026, 22:40 UTC

1 66166C 25240W   26257.94493056  .00048304  00000+0  14272-2 0  2573
2 66166  53.1577 259.4792 0001294  95.4515 284.6604 15.34366049    10

Śledź STARLINK-35624 w czasie rzeczywistym z AllMySat

Download on the App Store